Location: Unspecified
(0.0000°N, 0.0000°E)
Time: 01:13:23
(UTC+00:00)

Tiros 1 - All Passes

Search period start: 20 July 2019 00:00
Search period end: 30 July 2019 00:00
Orbit: 630 x 664 km, 48.4° (Epoch: 19 July)

Date Brightness Start Highest point End Pass type
(mag) Time Alt. Az. Time Alt. Az. Time Alt. Az.
20 Jul - 08:38:06 10° S 08:42:06 27° SE 08:46:07 10° ENE daylight
20 Jul - 10:20:21 10° WSW 10:24:08 23° NW 10:27:56 10° N daylight
20 Jul - 20:50:41 10° NNW 20:55:13 49° NE 20:59:43 10° SE visible
20 Jul - 22:35:10 10° WSW 22:37:16 13° SW 22:39:20 10° SSW night (unlit)
21 Jul - 09:03:23 10° SW 09:08:07 89° NW 09:12:52 10° NE daylight
21 Jul - 19:36:50 10° NNE 19:39:08 13° NE 19:41:26 10° E visible
21 Jul - 21:16:43 10° NW 21:21:13 47° SW 21:25:41 10° SSE visible
22 Jul - 07:48:19 10° S 07:52:06 24° SE 07:55:55 10° ENE daylight
22 Jul - 09:30:11 10° WSW 09:34:08 26° NW 09:38:06 10° N daylight
22 Jul - 20:00:45 10° NNW 20:05:13 43° NE 20:09:39 10° ESE visible
22 Jul - 21:44:41 10° W 21:47:16 15° SW 21:49:50 10° SSW night (unlit)
23 Jul - 08:13:25 10° SW 08:18:07 81° SE 08:22:51 10° NE daylight
23 Jul - 18:47:22 10° NNE 18:49:08 12° NE 18:50:54 10° ENE visible
23 Jul - 20:26:38 10° NW 20:31:13 54° SW 20:35:47 10° SSE visible
24 Jul - 06:58:33 10° S 07:02:07 21° SE 07:05:41 10° E daylight
24 Jul - 08:40:02 10° WSW 08:44:08 29° NW 08:48:16 10° N daylight
24 Jul - 19:10:51 10° NNW 19:15:14 38° NE 19:19:35 10° ESE visible
24 Jul - 20:54:17 10° W 20:57:16 17° SW 21:00:14 10° S visible
25 Jul - 07:23:27 10° SSW 07:28:08 71° SE 07:32:50 10° NE daylight
25 Jul - 17:58:14 10° NE 17:59:07 10° NE 18:00:00 10° ENE daylight
25 Jul - 19:36:35 10° NW 19:41:14 62° SW 19:45:52 10° SSE visible
26 Jul - 06:08:49 10° S 06:12:07 19° SE 06:15:25 10° E daylight
26 Jul - 07:49:55 10° WSW 07:54:08 33° NW 07:58:23 10° NNE daylight
26 Jul - 18:20:58 10° NNW 18:25:14 33° NE 18:29:29 10° ESE daylight
26 Jul - 20:03:58 10° W 20:07:16 19° SW 20:10:33 10° S visible
27 Jul - 06:33:31 10° SSW 06:38:08 62° SE 06:42:47 10° NE daylight
27 Jul - 08:19:35 10° WNW 08:20:16 10° NW 08:20:56 10° NW daylight
27 Jul - 18:46:32 10° NW 18:51:15 70° SW 18:55:55 10° SSE visible
28 Jul - 05:19:09 10° S 05:22:07 17° SE 05:25:06 10° E visible
28 Jul - 06:59:49 10° WSW 07:04:08 37° NW 07:08:30 10° NNE daylight
28 Jul - 17:31:05 10° N 17:35:14 30° NE 17:39:22 10° ESE daylight
28 Jul - 19:13:41 10° W 19:17:16 21° SW 19:20:50 10° S visible
29 Jul - 05:43:36 10° SSW 05:48:09 54° SE 05:52:44 10° NE daylight
29 Jul - 07:28:34 10° WNW 07:30:15 12° NW 07:31:55 10° NNW daylight
29 Jul - 17:56:30 10° NW 18:01:15 80° SW 18:05:58 10° SE daylight
